PBD6509 UWUU-UUEE

Flight info

Callsign PBD6509
Flight time 1h 54m
Altitude 38000
Route TILMU3M TILMU N985 ORTIM L158 DIMGI DIMGI3W
Aircraft B38M/M-SDE1FGHILORVWXY/HB1

Departure

Time 2026-04-25 15:54
Airport Ufa International Airport (UWUU)

Arrival

Time 2026-04-25 17:48
Airport Sheremetyevo International Airport (UUEE)
Time Latitude Longitude Altitude Speed Heading
2026-04-25 15:43 54.56301 55.88359 452 ft 0 kts 327°
2026-04-25 15:44 54.56303 55.88357 452 ft 1 kts 330°
2026-04-25 15:45 54.56323 55.88337 452 ft 5 kts 330°
2026-04-25 15:45 54.56366 55.88296 452 ft 9 kts 331°
2026-04-25 15:45 54.56420 55.88230 452 ft 7 kts 299°
2026-04-25 15:45 54.56421 55.88170 452 ft 9 kts 256°
2026-04-25 15:46 54.56370 55.88009 452 ft 15 kts 240°
2026-04-25 15:46 54.56311 55.87831 453 ft 13 kts 240°
2026-04-25 15:46 54.56257 55.87666 452 ft 19 kts 240°
2026-04-25 15:46 54.56181 55.87434 452 ft 25 kts 240°
2026-04-25 15:47 54.56120 55.87249 452 ft 14 kts 240°
2026-04-25 15:47 54.56068 55.87091 452 ft 16 kts 240°
2026-04-25 15:47 54.56011 55.86918 452 ft 17 kts 244°
2026-04-25 15:47 54.55950 55.86730 452 ft 19 kts 241°
2026-04-25 15:48 54.55894 55.86561 453 ft 2 kts 240°
2026-04-25 15:48 54.55894 55.86559 453 ft 0 kts 240°
2026-04-25 15:48 54.55886 55.86537 453 ft 4 kts 240°
2026-04-25 15:48 54.55860 55.86457 453 ft 11 kts 240°
2026-04-25 15:49 54.55871 55.86311 453 ft 15 kts 325°
2026-04-25 15:49 54.55977 55.86225 455 ft 19 kts 330°
2026-04-25 15:49 54.56093 55.86113 455 ft 18 kts 330°
2026-04-25 15:49 54.56200 55.86010 455 ft 19 kts 330°
2026-04-25 15:50 54.56295 55.85918 454 ft 20 kts 330°
2026-04-25 15:50 54.56406 55.85811 453 ft 19 kts 330°
2026-04-25 15:50 54.56513 55.85709 455 ft 16 kts 330°
2026-04-25 15:50 54.56613 55.85611 455 ft 18 kts 331°
2026-04-25 15:51 54.56727 55.85502 457 ft 18 kts 330°
2026-04-25 15:51 54.56806 55.85425 455 ft 21 kts 331°
2026-04-25 15:51 54.56950 55.85287 453 ft 16 kts 330°
2026-04-25 15:51 54.57062 55.85179 453 ft 20 kts 330°
2026-04-25 15:52 54.57184 55.85094 452 ft 19 kts
2026-04-25 15:52 54.57293 55.85064 454 ft 7 kts 315°
2026-04-25 15:52 54.57302 55.84984 454 ft 8 kts 257°
2026-04-25 15:52 54.57286 55.84948 454 ft 1 kts 175°
2026-04-25 15:53 54.57281 55.84958 454 ft 4 kts 131°
2026-04-25 15:53 54.57234 55.85012 454 ft 0 kts 151°
2026-04-25 15:53 54.57212 55.85034 453 ft 23 kts 151°
2026-04-25 15:53 54.56848 55.85385 455 ft 95 kts 151°
2026-04-25 15:54 54.56090 55.86103 459 ft 151 kts 156°
2026-04-25 15:54 54.55063 55.87104 654 ft 183 kts 150°
2026-04-25 15:54 54.53953 55.88209 1582 ft 177 kts 159°
2026-04-25 15:54 54.52942 55.89365 2387 ft 193 kts 140°
2026-04-25 15:55 54.52477 55.90846 2531 ft 225 kts 109°
2026-04-25 15:55 54.52920 55.94629 3011 ft 267 kts 53°
2026-04-25 15:55 54.54237 55.96734 4044 ft 256 kts 39°
2026-04-25 15:55 54.55544 55.98938 4729 ft 267 kts 45°
2026-04-25 15:56 54.56821 56.01279 5608 ft 267 kts 45°
2026-04-25 15:56 54.58084 56.03634 6440 ft 269 kts 45°
2026-04-25 15:56 54.59357 56.05970 7138 ft 275 kts 39°
2026-04-25 15:56 54.61044 56.07556 7561 ft 283 kts
2026-04-25 15:57 54.62985 56.07486 8186 ft 276 kts 338°
2026-04-25 15:57 54.64717 56.06144 8979 ft 275 kts 328°
2026-04-25 15:57 54.66422 56.04595 9762 ft 277 kts 327°
2026-04-25 15:57 54.68157 56.02980 10225 ft 292 kts 327°
2026-04-25 15:58 54.69938 56.01301 10534 ft 308 kts 327°
2026-04-25 15:58 54.71851 55.99480 10989 ft 319 kts 327°
2026-04-25 15:58 54.73817 55.97595 11647 ft 324 kts 327°
2026-04-25 15:58 54.75789 55.95682 12403 ft 326 kts 325°
2026-04-25 15:59 54.77439 55.93076 13154 ft 322 kts 302°
2026-04-25 15:59 54.78365 55.89556 13834 ft 323 kts 282°
2026-04-25 15:59 54.78628 55.85675 14479 ft 327 kts 274°
2026-04-25 15:59 54.78789 55.81721 15176 ft 330 kts 273°
2026-04-25 16:00 54.78928 55.77732 15893 ft 334 kts 273°
2026-04-25 16:00 54.78971 55.76425 16125 ft 335 kts 272°
2026-04-25 16:00 54.79171 55.69648 17287 ft 341 kts 272°
2026-04-25 16:00 54.79284 55.65503 17969 ft 345 kts 272°
2026-04-25 16:01 54.79394 55.61331 18571 ft 348 kts 272°
2026-04-25 16:01 54.79502 55.57116 19182 ft 351 kts 272°
2026-04-25 16:01 54.79610 55.52884 19781 ft 353 kts 272°
2026-04-25 16:01 54.79716 55.48616 20383 ft 356 kts 272°
2026-04-25 16:02 54.79822 55.44315 20974 ft 358 kts 272°
2026-04-25 16:02 54.79924 55.40087 21538 ft 361 kts 272°
2026-04-25 16:02 54.80029 55.35717 22101 ft 364 kts 272°
2026-04-25 16:02 54.80133 55.31313 22651 ft 367 kts 272°
2026-04-25 16:03 54.80236 55.26880 23191 ft 370 kts 272°
2026-04-25 16:03 54.80337 55.22417 23633 ft 372 kts 271°
2026-04-25 16:03 54.80438 55.17908 24051 ft 376 kts 271°
2026-04-25 16:03 54.80539 55.13340 24463 ft 379 kts 271°
2026-04-25 16:04 54.80600 55.10610 24699 ft 380 kts 271°
2026-04-25 16:04 54.80697 55.06030 25113 ft 383 kts 271°
2026-04-25 16:04 54.80796 55.01366 25486 ft 386 kts 271°
2026-04-25 16:04 54.80892 54.96701 25885 ft 389 kts 271°
2026-04-25 16:05 54.80988 54.91986 26273 ft 392 kts 271°
2026-04-25 16:05 54.81083 54.87245 26651 ft 395 kts 271°
2026-04-25 16:05 54.81268 54.77671 27399 ft 400 kts 271°
2026-04-25 16:06 54.81328 54.74453 27632 ft 402 kts 271°
2026-04-25 16:06 54.81447 54.68005 28107 ft 406 kts 271°
2026-04-25 16:06 54.81506 54.64696 28334 ft 408 kts 271°
2026-04-25 16:06 54.81621 54.58157 28791 ft 411 kts 271°
2026-04-25 16:07 54.81707 54.53177 29127 ft 414 kts 271°
2026-04-25 16:07 54.81735 54.51488 29236 ft 415 kts 271°
2026-04-25 16:07 54.81847 54.44764 29686 ft 418 kts 271°
2026-04-25 16:07 54.81927 54.39771 29940 ft 421 kts 271°
2026-04-25 16:08 54.82006 54.34673 30190 ft 423 kts 271°
2026-04-25 16:08 54.82085 54.29556 30437 ft 426 kts 271°
2026-04-25 16:08 54.82163 54.24410 30687 ft 428 kts 271°
2026-04-25 16:08 54.82265 54.19239 30922 ft 431 kts 275°
2026-04-25 16:09 54.82924 54.14174 31238 ft 432 kts 285°
2026-04-25 16:09 54.83694 54.09091 31408 ft 435 kts 283°
2026-04-25 16:09 54.84452 54.03982 31626 ft 438 kts 283°
2026-04-25 16:09 54.85254 53.98873 31840 ft 441 kts 284°
2026-04-25 16:10 54.85784 53.95462 32007 ft 442 kts 283°
2026-04-25 16:10 54.86803 53.88599 32417 ft 442 kts 283°
2026-04-25 16:10 54.87582 53.83438 32751 ft 442 kts 283°
2026-04-25 16:10 54.88364 53.78273 33064 ft 442 kts 284°
2026-04-25 16:11 54.89146 53.73099 33370 ft 442 kts 283°
2026-04-25 16:11 54.89926 53.67937 33694 ft 442 kts 283°
2026-04-25 16:11 54.90707 53.62766 33934 ft 442 kts 283°
2026-04-25 16:11 54.91487 53.57586 34189 ft 442 kts 283°
2026-04-25 16:12 54.92265 53.52405 34447 ft 442 kts 283°
2026-04-25 16:12 54.93040 53.47223 34690 ft 443 kts 283°
2026-04-25 16:12 54.93816 53.42032 34933 ft 443 kts 283°
2026-04-25 16:12 54.94324 53.38617 35092 ft 443 kts 283°
2026-04-25 16:13 54.95355 53.31668 35413 ft 443 kts 283°
2026-04-25 16:13 54.96112 53.26534 35645 ft 443 kts 283°
2026-04-25 16:13 54.96873 53.21345 35871 ft 443 kts 283°
2026-04-25 16:13 54.97634 53.16139 36110 ft 443 kts 283°
2026-04-25 16:14 54.98394 53.10921 36334 ft 443 kts 283°
2026-04-25 16:14 54.99151 53.05708 36546 ft 444 kts 283°
2026-04-25 16:14 54.99905 53.00498 36760 ft 444 kts 283°
2026-04-25 16:14 55.00586 52.95778 36953 ft 444 kts 283°
2026-04-25 16:15 55.01346 52.90494 37163 ft 445 kts 283°
2026-04-25 16:15 55.02095 52.85269 37366 ft 445 kts 282°
2026-04-25 16:15 55.02835 52.80096 37544 ft 445 kts 282°
2026-04-25 16:15 55.03583 52.74848 37667 ft 446 kts 283°
2026-04-25 16:16 55.04327 52.69606 37668 ft 446 kts 282°
2026-04-25 16:16 55.05811 52.59115 37664 ft 445 kts 282°
2026-04-25 16:17 55.07285 52.48609 37661 ft 445 kts 282°
2026-04-25 16:17 55.08751 52.38105 37658 ft 445 kts 282°
2026-04-25 16:18 55.10205 52.27609 37660 ft 445 kts 282°
2026-04-25 16:18 55.11644 52.17142 37656 ft 445 kts 282°
2026-04-25 16:19 55.13082 52.06616 37661 ft 445 kts 282°
2026-04-25 16:19 55.14510 51.96088 37654 ft 445 kts 282°
2026-04-25 16:20 55.16636 51.80277 37657 ft 445 kts 282°
2026-04-25 16:21 55.18738 51.64472 37657 ft 445 kts 282°
2026-04-25 16:21 55.20131 51.53907 37654 ft 445 kts 282°
2026-04-25 16:22 55.21501 51.43428 37652 ft 445 kts 282°
2026-04-25 16:22 55.22876 51.32851 37653 ft 445 kts 282°
2026-04-25 16:23 55.24237 51.22295 37654 ft 445 kts 282°
2026-04-25 16:23 55.25596 51.11694 37653 ft 445 kts 282°
2026-04-25 16:24 55.26926 51.01105 37649 ft 445 kts 280°
2026-04-25 16:24 55.28167 50.90473 37652 ft 445 kts 281°
2026-04-25 16:25 55.29409 50.79838 37651 ft 445 kts 280°
2026-04-25 16:25 55.30644 50.69189 37650 ft 445 kts 280°
2026-04-25 16:26 55.31864 50.58587 37650 ft 445 kts 280°
2026-04-25 16:26 55.33081 50.47920 37651 ft 446 kts 280°
2026-04-25 16:27 55.34291 50.37229 37651 ft 446 kts 280°
2026-04-25 16:27 55.35490 50.26546 37647 ft 446 kts 280°
2026-04-25 16:28 55.36681 50.15842 37649 ft 446 kts 280°
2026-04-25 16:28 55.37864 50.05132 37651 ft 446 kts 280°
2026-04-25 16:29 55.38861 49.94374 37652 ft 445 kts 274°
2026-04-25 16:29 55.39430 49.83552 37647 ft 446 kts 274°
2026-04-25 16:30 55.39968 49.72741 37648 ft 446 kts 274°
2026-04-25 16:30 55.40484 49.62150 37644 ft 446 kts 274°
2026-04-25 16:31 55.41006 49.51233 37647 ft 446 kts 274°
2026-04-25 16:31 55.41517 49.40348 37642 ft 446 kts 274°
2026-04-25 16:32 55.42017 49.29445 37642 ft 447 kts 274°
2026-04-25 16:32 55.42508 49.18535 37642 ft 447 kts 274°
2026-04-25 16:33 55.42989 49.07628 37647 ft 447 kts 274°
2026-04-25 16:33 55.43458 48.96784 37648 ft 447 kts 273°
2026-04-25 16:34 55.43919 48.85871 37653 ft 447 kts 273°
2026-04-25 16:34 55.44372 48.74931 37653 ft 447 kts 273°
2026-04-25 16:35 55.44814 48.64011 37657 ft 447 kts 273°
2026-04-25 16:35 55.45393 48.53105 37639 ft 448 kts 283°
2026-04-25 16:36 55.47194 48.42565 37650 ft 450 kts 285°
2026-04-25 16:36 55.48937 48.32407 37655 ft 450 kts 285°
2026-04-25 16:37 55.50747 48.21910 37659 ft 450 kts 285°
2026-04-25 16:37 55.52564 48.11323 37655 ft 451 kts 285°
2026-04-25 16:38 55.54371 48.00727 37666 ft 451 kts 285°
2026-04-25 16:38 55.56169 47.90124 37660 ft 451 kts 285°
2026-04-25 16:39 55.57950 47.79556 37664 ft 451 kts 285°
2026-04-25 16:39 55.59734 47.68910 37663 ft 451 kts 285°
2026-04-25 16:40 55.61510 47.58246 37670 ft 451 kts 285°
2026-04-25 16:40 55.63275 47.47580 37670 ft 452 kts 285°
2026-04-25 16:41 55.65034 47.36883 37672 ft 452 kts 285°
2026-04-25 16:41 55.67651 47.20867 37669 ft 452 kts 285°
2026-04-25 16:42 55.69387 47.10147 37677 ft 453 kts 284°
2026-04-25 16:42 55.70545 47.02967 37672 ft 453 kts 284°
2026-04-25 16:43 55.71999 46.93913 37675 ft 453 kts 284°
2026-04-25 16:43 55.72903 46.88260 37678 ft 453 kts 284°
2026-04-25 16:44 55.74610 46.77532 37683 ft 454 kts 284°
2026-04-25 16:44 55.76313 46.66756 37675 ft 454 kts 284°
2026-04-25 16:45 55.78014 46.55930 37684 ft 455 kts 284°
2026-04-25 16:45 55.79475 46.44994 37671 ft 452 kts 272°
2026-04-25 16:46 55.79845 46.33818 37678 ft 454 kts 272°
2026-04-25 16:46 55.80099 46.26328 37691 ft 454 kts 272°
2026-04-25 16:47 55.80575 46.11395 37695 ft 454 kts 272°
2026-04-25 16:47 55.80918 46.00190 37693 ft 454 kts 272°
2026-04-25 16:48 55.81250 45.89032 37691 ft 454 kts 272°
2026-04-25 16:48 55.81574 45.77807 37692 ft 454 kts 272°
2026-04-25 16:49 55.81887 45.66597 37696 ft 454 kts 272°
2026-04-25 16:49 55.82191 45.55337 37699 ft 455 kts 272°
2026-04-25 16:50 55.82484 45.44111 37697 ft 455 kts 272°
2026-04-25 16:50 55.82721 45.34747 37701 ft 455 kts 272°
2026-04-25 16:51 55.82995 45.23503 37699 ft 455 kts 271°
2026-04-25 16:51 55.83218 45.14065 37697 ft 455 kts 271°
2026-04-25 16:52 55.83518 45.00963 37700 ft 456 kts 271°
2026-04-25 16:52 55.83767 44.89682 37699 ft 456 kts 271°
2026-04-25 16:53 55.84126 44.72760 37706 ft 456 kts 271°
2026-04-25 16:54 55.84317 44.63244 37707 ft 456 kts 271°
2026-04-25 16:54 55.84536 44.51953 37698 ft 457 kts 271°
2026-04-25 16:55 55.84744 44.40629 37704 ft 457 kts 271°
2026-04-25 16:55 55.84938 44.29525 37707 ft 457 kts 271°
2026-04-25 16:56 55.85125 44.18268 37722 ft 457 kts 271°
2026-04-25 16:56 55.85302 44.06941 37707 ft 457 kts 271°
2026-04-25 16:57 55.85469 43.95650 37715 ft 456 kts 271°
2026-04-25 16:57 55.85625 43.84358 37719 ft 456 kts 271°
2026-04-25 16:58 55.85771 43.73073 37719 ft 456 kts 271°
2026-04-25 16:58 55.85907 43.61767 37711 ft 457 kts 271°
2026-04-25 16:59 55.86035 43.50528 37716 ft 457 kts 271°
2026-04-25 16:59 55.86156 43.39202 37715 ft 457 kts 271°
2026-04-25 17:00 55.86269 43.27858 37721 ft 458 kts 271°
2026-04-25 17:00 55.86370 43.16591 37717 ft 459 kts 271°
2026-04-25 17:01 55.86462 43.05216 37719 ft 459 kts 271°
2026-04-25 17:01 55.86544 42.93865 37715 ft 459 kts 271°
2026-04-25 17:02 55.86568 42.90160 37727 ft 459 kts 271°
2026-04-25 17:02 55.86635 42.78840 37720 ft 460 kts 271°
2026-04-25 17:03 55.86693 42.67472 37724 ft 460 kts 271°
2026-04-25 17:03 55.86740 42.56056 37717 ft 460 kts 271°
2026-04-25 17:04 55.86776 42.44661 37726 ft 460 kts 271°
2026-04-25 17:04 55.86819 42.33231 37656 ft 461 kts 271°
2026-04-25 17:04 55.86854 42.27525 37516 ft 461 kts 272°
2026-04-25 17:05 55.86910 42.21819 37281 ft 460 kts 272°
2026-04-25 17:05 55.86973 42.10462 36947 ft 454 kts 269°
2026-04-25 17:05 55.86885 42.04925 37237 ft 453 kts 270°
2026-04-25 17:06 55.86842 41.99249 37421 ft 453 kts 271°
2026-04-25 17:06 55.86818 41.93625 37607 ft 453 kts 271°
2026-04-25 17:06 55.86805 41.88031 37720 ft 454 kts 271°
2026-04-25 17:06 55.86792 41.82455 37714 ft 457 kts 271°
2026-04-25 17:07 55.86558 41.71010 37712 ft 461 kts 269°
2026-04-25 17:07 55.86226 41.59677 37713 ft 461 kts 268°
2026-04-25 17:08 55.85877 41.48253 37708 ft 461 kts 268°
2026-04-25 17:08 55.85518 41.36852 37708 ft 461 kts 268°
2026-04-25 17:09 55.85150 41.25450 37707 ft 461 kts 268°
2026-04-25 17:09 55.84770 41.14081 37708 ft 461 kts 268°
2026-04-25 17:10 55.84380 41.02679 37707 ft 461 kts 268°
2026-04-25 17:10 55.83980 40.91311 37439 ft 458 kts 268°
2026-04-25 17:11 55.83780 40.85736 36895 ft 455 kts 268°
2026-04-25 17:11 55.83588 40.80441 36379 ft 452 kts 268°
2026-04-25 17:11 55.83384 40.74874 35847 ft 448 kts 268°
2026-04-25 17:11 55.83179 40.69354 35315 ft 446 kts 268°
2026-04-25 17:12 55.82973 40.63847 34782 ft 443 kts 268°
2026-04-25 17:12 55.82755 40.58390 34204 ft 443 kts 268°
2026-04-25 17:12 55.82535 40.52908 33695 ft 440 kts 268°
2026-04-25 17:12 55.82310 40.47331 33092 ft 437 kts 268°
2026-04-25 17:13 55.82094 40.42031 32554 ft 434 kts 268°
2026-04-25 17:13 55.82020 40.40225 32385 ft 432 kts 268°
2026-04-25 17:13 55.81655 40.31429 31554 ft 426 kts 268°
2026-04-25 17:13 55.81432 40.26127 31053 ft 422 kts 268°
2026-04-25 17:14 55.81211 40.20943 30562 ft 419 kts 268°
2026-04-25 17:14 55.80990 40.15785 30082 ft 416 kts 268°
2026-04-25 17:14 55.80768 40.10672 29449 ft 415 kts 268°
2026-04-25 17:14 55.80543 40.05544 28670 ft 416 kts 268°
2026-04-25 17:15 55.80316 40.00423 28008 ft 415 kts 267°
2026-04-25 17:15 55.80088 39.95307 27355 ft 413 kts 267°
2026-04-25 17:15 55.79862 39.90284 26685 ft 412 kts 266°
2026-04-25 17:15 55.79785 39.88580 26467 ft 412 kts 266°
2026-04-25 17:16 55.79526 39.82886 25736 ft 411 kts 265°
2026-04-25 17:16 55.79217 39.77995 25452 ft 401 kts 264°
2026-04-25 17:17 55.78898 39.73212 25241 ft 390 kts 264°
2026-04-25 17:17 55.78588 39.68491 25039 ft 380 kts 264°
2026-04-25 17:17 55.78284 39.63882 24817 ft 370 kts 263°
2026-04-25 17:17 55.77984 39.59328 24593 ft 370 kts 263°
2026-04-25 17:18 55.77684 39.54805 24358 ft 369 kts 263°
2026-04-25 17:18 55.77382 39.50278 24145 ft 367 kts 263°
2026-04-25 17:18 55.77082 39.45799 23930 ft 365 kts 263°
2026-04-25 17:18 55.76780 39.41313 23714 ft 364 kts 263°
2026-04-25 17:19 55.76471 39.36879 23493 ft 362 kts 263°
2026-04-25 17:19 55.76162 39.32442 23324 ft 360 kts 263°
2026-04-25 17:19 55.75853 39.28030 23115 ft 359 kts 263°
2026-04-25 17:19 55.75648 39.25113 22974 ft 358 kts 263°
2026-04-25 17:20 55.75319 39.20467 22760 ft 357 kts 263°
2026-04-25 17:20 55.75009 39.16102 22581 ft 356 kts 263°
2026-04-25 17:20 55.74698 39.11748 22397 ft 355 kts 263°
2026-04-25 17:21 55.74386 39.07404 22206 ft 354 kts 263°
2026-04-25 17:21 55.74074 39.03073 22023 ft 353 kts 263°
2026-04-25 17:21 55.73761 38.98758 21841 ft 352 kts 263°
2026-04-25 17:21 55.73454 38.94467 21679 ft 351 kts 264°
2026-04-25 17:22 55.73508 38.90296 21397 ft 349 kts 275°
2026-04-25 17:22 55.73591 38.88733 21311 ft 349 kts 275°
2026-04-25 17:22 55.73943 38.81618 20932 ft 347 kts 275°
2026-04-25 17:22 55.74153 38.77356 20694 ft 346 kts 275°
2026-04-25 17:23 55.74361 38.73115 20453 ft 345 kts 275°
2026-04-25 17:23 55.74567 38.68890 20214 ft 343 kts 275°
2026-04-25 17:23 55.74771 38.64671 19980 ft 342 kts 275°
2026-04-25 17:23 55.74813 38.63804 19936 ft 342 kts 275°
2026-04-25 17:24 55.75056 38.59464 19715 ft 340 kts 281°
2026-04-25 17:24 55.75907 38.55572 19663 ft 340 kts 301°
2026-04-25 17:24 55.77217 38.52067 19661 ft 341 kts 303°
2026-04-25 17:24 55.78548 38.48586 19660 ft 341 kts 303°
2026-04-25 17:25 55.79440 38.46282 19652 ft 341 kts 303°
2026-04-25 17:25 55.81225 38.41719 19655 ft 327 kts 304°
2026-04-25 17:25 55.81644 38.40653 19658 ft 323 kts 304°
2026-04-25 17:25 55.82082 38.39539 19659 ft 320 kts 304°
2026-04-25 17:26 55.83412 38.36391 19383 ft 317 kts 307°
2026-04-25 17:26 55.84764 38.33304 19102 ft 312 kts 306°
2026-04-25 17:26 55.86088 38.30260 18809 ft 309 kts 306°
2026-04-25 17:26 55.87403 38.27226 18519 ft 310 kts 306°
2026-04-25 17:27 55.88712 38.24195 18219 ft 309 kts 306°
2026-04-25 17:27 55.90023 38.21159 17914 ft 308 kts 306°
2026-04-25 17:27 55.90033 38.21137 17911 ft 308 kts 306°
2026-04-25 17:27 55.90429 38.20219 17807 ft 307 kts 306°
2026-04-25 17:28 55.92588 38.15205 17262 ft 304 kts 306°
2026-04-25 17:28 55.93866 38.12233 16961 ft 303 kts 306°
2026-04-25 17:28 55.94222 38.11406 16881 ft 302 kts 306°
2026-04-25 17:28 55.94667 38.10370 16782 ft 302 kts 306°
2026-04-25 17:29 55.95941 38.07399 16478 ft 301 kts 306°
2026-04-25 17:29 55.97188 38.04490 16192 ft 300 kts 306°
2026-04-25 17:29 55.98452 38.01538 15902 ft 298 kts 306°
2026-04-25 17:29 55.99700 37.98600 15620 ft 296 kts 304°
2026-04-25 17:30 56.00527 37.95277 15358 ft 293 kts 282°
2026-04-25 17:30 56.00939 37.91703 15164 ft 294 kts 282°
2026-04-25 17:30 56.01348 37.88127 14980 ft 294 kts 282°
2026-04-25 17:30 56.01740 37.84585 14793 ft 293 kts 282°
2026-04-25 17:31 56.02119 37.81181 14634 ft 293 kts 284°
2026-04-25 17:31 56.02973 37.77981 14281 ft 293 kts 309°
2026-04-25 17:31 56.04528 37.75707 13982 ft 294 kts 330°
2026-04-25 17:31 56.06352 37.74081 13693 ft 293 kts 332°
2026-04-25 17:32 56.08186 37.72488 13389 ft 293 kts 333°
2026-04-25 17:32 56.09997 37.70940 13060 ft 292 kts 333°
2026-04-25 17:32 56.11864 37.69362 12741 ft 291 kts 333°
2026-04-25 17:32 56.13643 37.67686 12466 ft 286 kts 327°
2026-04-25 17:33 56.15339 37.65846 12192 ft 282 kts 328°
2026-04-25 17:33 56.17003 37.64062 11952 ft 283 kts 328°
2026-04-25 17:33 56.18708 37.62248 11680 ft 283 kts 328°
2026-04-25 17:33 56.20314 37.60547 11407 ft 282 kts 328°
2026-04-25 17:34 56.22002 37.58761 11116 ft 282 kts 328°
2026-04-25 17:34 56.23594 37.57079 10845 ft 282 kts 328°
2026-04-25 17:34 56.25273 37.55304 10559 ft 281 kts 328°
2026-04-25 17:34 56.26966 37.53514 10274 ft 280 kts 328°
2026-04-25 17:35 56.28619 37.51693 9956 ft 277 kts 321°
2026-04-25 17:35 56.29814 37.49135 9632 ft 274 kts 296°
2026-04-25 17:35 56.30253 37.45838 9331 ft 272 kts 271°
2026-04-25 17:35 56.29898 37.42527 9044 ft 270 kts 249°
2026-04-25 17:36 56.29048 37.39800 8791 ft 267 kts 240°
2026-04-25 17:36 56.28069 37.37020 8517 ft 264 kts 239°
2026-04-25 17:36 56.27074 37.34267 8254 ft 261 kts 239°
2026-04-25 17:36 56.25882 37.31782 7918 ft 262 kts 218°
2026-04-25 17:37 56.24205 37.30532 7619 ft 266 kts 191°
2026-04-25 17:37 56.22416 37.30721 7435 ft 263 kts 169°
2026-04-25 17:37 56.21250 37.31278 7408 ft 256 kts 168°
2026-04-25 17:37 56.19058 37.32394 7193 ft 251 kts 159°
2026-04-25 17:38 56.18083 37.33505 6987 ft 256 kts 138°
2026-04-25 17:38 56.17348 37.35187 6777 ft 258 kts 117°
2026-04-25 17:38 56.17061 37.40349 6311 ft 252 kts 74°
2026-04-25 17:38 56.17352 37.42401 6147 ft 252 kts 74°
2026-04-25 17:39 56.17752 37.45199 5893 ft 255 kts 73°
2026-04-25 17:39 56.18202 37.48292 5603 ft 255 kts 73°
2026-04-25 17:39 56.18662 37.51417 5318 ft 253 kts 73°
2026-04-25 17:39 56.19082 37.54251 5073 ft 251 kts 73°
2026-04-25 17:40 56.19304 37.57354 4844 ft 247 kts 98°
2026-04-25 17:40 56.18728 37.60067 4712 ft 243 kts 128°
2026-04-25 17:40 56.17625 37.62363 4626 ft 245 kts 135°
2026-04-25 17:40 56.16470 37.64588 4496 ft 244 kts 135°
2026-04-25 17:41 56.15317 37.66767 4345 ft 237 kts 136°
2026-04-25 17:41 56.14192 37.68871 4206 ft 229 kts 136°
2026-04-25 17:41 56.13088 37.70917 4074 ft 228 kts 136°
2026-04-25 17:41 56.11979 37.72961 3955 ft 228 kts 136°
2026-04-25 17:42 56.10878 37.74984 3825 ft 227 kts 136°
2026-04-25 17:42 56.09661 37.76749 3653 ft 222 kts 161°
2026-04-25 17:42 56.08177 37.77003 3523 ft 207 kts 195°
2026-04-25 17:42 56.06850 37.76322 3428 ft 196 kts 199°
2026-04-25 17:43 56.05574 37.75628 3286 ft 188 kts 199°
2026-04-25 17:43 56.04346 37.74951 3150 ft 183 kts 199°
2026-04-25 17:43 56.03212 37.74314 3045 ft 181 kts 201°
2026-04-25 17:43 56.02229 37.73080 2917 ft 170 kts 235°
2026-04-25 17:44 56.01815 37.71560 2838 ft 167 kts 252°
2026-04-25 17:44 56.01442 37.69593 2710 ft 167 kts 249°
2026-04-25 17:44 56.01056 37.67639 2642 ft 167 kts 252°
2026-04-25 17:44 56.00739 37.65655 2567 ft 163 kts 255°
2026-04-25 17:45 56.00457 37.63759 2506 ft 152 kts 255°
2026-04-25 17:45 56.00275 37.62536 2427 ft 148 kts 254°
2026-04-25 17:45 55.99927 37.60199 2225 ft 146 kts 254°
2026-04-25 17:45 55.99664 37.58435 2093 ft 147 kts 253°
2026-04-25 17:46 55.99401 37.56671 1999 ft 148 kts 253°
2026-04-25 17:46 55.99135 37.54883 1844 ft 148 kts 253°
2026-04-25 17:46 55.98874 37.53132 1663 ft 144 kts 253°
2026-04-25 17:46 55.98618 37.51407 1464 ft 144 kts 253°
2026-04-25 17:47 55.98359 37.49668 1271 ft 145 kts 253°
2026-04-25 17:47 55.98104 37.47974 1082 ft 145 kts 253°
2026-04-25 17:47 55.97843 37.46226 897 ft 146 kts 254°
2026-04-25 17:47 55.97599 37.44541 723 ft 146 kts 252°
2026-04-25 17:48 55.97182 37.41758 646 ft 58 kts 257°
2026-04-25 17:48 55.97131 37.41412 642 ft 0 kts 255°
2026-04-25 17:48 55.97116 37.41321 642 ft 15 kts 249°
2026-04-25 17:49 55.97057 37.41127 641 ft 18 kts 236°
2026-04-25 17:49 55.96972 37.40951 640 ft 19 kts 225°
2026-04-25 17:49 55.96936 37.40886 647 ft 0 kts 225°
2026-04-25 17:51 55.96935 37.40884 647 ft 1 kts 225°
2026-04-25 17:51 55.96926 37.40868 641 ft 3 kts 225°
2026-04-25 17:51 55.96906 37.40832 644 ft 5 kts 225°
2026-04-25 17:51 55.96872 37.40772 642 ft 8 kts 225°
2026-04-25 17:52 55.96827 37.40691 641 ft 10 kts 225°
2026-04-25 17:52 55.96808 37.40664 641 ft 11 kts 210°
2026-04-25 17:52 55.96679 37.40697 641 ft 13 kts 164°
2026-04-25 17:52 55.96651 37.40711 641 ft 2 kts 165°
2026-04-25 17:53 55.96631 37.40720 641 ft 4 kts 166°
2026-04-25 17:53 55.96595 37.40737 641 ft 7 kts 164°
2026-04-25 17:53 55.96542 37.40741 641 ft 9 kts 207°
2026-04-25 17:53 55.96526 37.40662 641 ft 6 kts 275°
2026-04-25 17:54 55.96526 37.40606 641 ft 0 kts 270°